|
NORAD ID: 1002 Int'l Code: 1965-008C
Perigee: 2,787.4 km
Apogee: 2,814.5 km
Inclination: 32.1 °
Period: 145.7 minutes
Semi major axis: 9171 km
Launch date: February 11, 1965
Source: United States (US)
Two Line Element Set (TLE):
1 01002U 65008C 13142.56061596 .00000008 00000-0 00000+0 0 5400
2 01002 032.1388 193.3287 0014755 300.5454 171.9683 09.88348397744207
Source:
NASA's NSSDC Master Catalog entry for LES 1
|